Погода в Дубках

Россия / Орловская область     52°26′43″N   37°32′31″E
темп.,
°C
ветер,
м/с
пор.,
м/с
влажн.,
%
обл.,
%
осадки,
мм/ч
давл.,
гПа
погр.,
м
2 декабря, чт
чт200:00−3з59695 0.0 1000939
03:00−3з6107172 0.0 1003884
06:00−4з597717 0.0 1005628
09:00−4юз49835 0.0 1006451
12:00−2ююз61067100 0.0 1007586
15:00−2ю71474100 0.1 1005733
18:00−1ююз81796100 1.4 1004721
21:00+1юз71786100 2.0 1004644
3 декабря, пт
пт300:00+2юз61590100 0.0 1004505
03:00+2юз6139591 0.0 1005439
06:00+2ююз51196100 0.0 1005313
09:00+1ююз51194100 0.0 1007287
12:00+3ююз5129792 0.0 1007438
15:00+4ю61391100 0.0 1005552
18:00+5ююз71690100 0.1 1004684
21:00+6ююз81781100 0.1 1003615
4 декабря, сб
сб400:00+6юз81588100 0.2 1002885
03:00+1зсз5992100 2.4 1006526
06:00−1з5989100 0.0 1009485
09:00−2зюз4108674 0.0 1011429
12:00−1з6107217 0.0 1012592
15:00−1з598247 0.0 1013651
18:00−2зсз468080 0.0 1015563
21:00−3зюз24825 0.0 1016259
5 декабря, вс
вс500:00−3зюз23845 0.0 1017190
03:00−3зюз1187100 0.0 101837
06:00−3юв1184100 0.0 101851
09:00−3ююв238297 0.0 1019116
12:00−1юв35665 0.0 1019298
15:00−1вюв3667100 0.0 1019274
18:00−2вюв4970100 0.0 1019252
21:00−2вюв41071100 0.0 1020299
6 декабря, пн
пн600:00−2вюв51268100 0.0 1019370
03:00−2вюв51071100 0.0 1019408
06:00−2вюв51096100 1.3 1019326
09:00−2вюв51197100 2.6 1019342
12:00−1вюв51196100 1.1 1019340
15:000вюв4997100 1.4 1019318
18:000вюв4998100 0.2 1019275
21:000вюв4998100 0.2 1019253